Regional Weather Roundup
Issued by NWS

Home | Current Version | Previous Version | Text Only | Print | Product List | Glossary Off
Versions: 1 2 3 4 5 6 7 8 9 10 11 12 13 14 15 16 17 18 19 20 21 22 23 24 25 26 27 28 29 30 31 32 33 34 35 36 37 38 39 40 41 42 43 44 45 46 47 48 49 50

294
ASUS45 KCYS 190810
RWRWY

WYOMING REGIONAL WEATHER ROUNDUP
NATIONAL WEATHER SERVICE CHEYENNE WY
100 AM MST THU JAN 19 2017

NOTE:  "FAIR" INDICATES FEW OR NO CLOUDS BELOW 12,000 FEET
WITH NO SIGNIFICANT WEATHER AND/OR OBSTRUCTIONS TO VISIBILITY.

WYZ001-190900-
YELLOWSTONE NATIONAL PARK

CITY           SKY/WX    TMP DP  RH WIND       PRES   REMARKS
LK YELLOWSTONE   N/A     13  11  92 VRB6      29.75F WCI   4
W YELLOWSTONE  NOT AVBL

$$
WYZ002>013-054>058-071-098>099-190900-
NORTHERN WYOMING

CITY           SKY/WX    TMP DP  RH WIND       PRES   REMARKS
JACKSON        CLOUDY     9   7  92 CALM      29.80F
CODY           FAIR      21  13  71 SE7       29.61F WCI  12
GREYBULL       FAIR       0  -4  83 NW5       29.68F WCI -10
WORLAND        FAIR      10   9  95 CALM      29.67F
SHERIDAN       FAIR      16  13  88 CALM      29.56F
BUFFALO        FAIR      37  18  46 CALM      29.59F
GILLETTE       FAIR      34  20  56 SW17      29.58F WCI  23
HULETT         FAIR      32  21  64 W9        29.59S WCI  24
NEWCASTLE      FAIR      27  18  69 N5        29.62F WCI  21

$$
WYZ014>020-022>026-101>103-190900-
CENTRAL WYOMING

CITY           SKY/WX    TMP DP  RH WIND       PRES   REMARKS
BIG PINEY      FAIR      -5  -7  91 W5        29.84F WCI -16
PINEDALE       PTSUNNY   -4  -8  84 CALM      29.84F
DUBOIS         NOT AVBL
LANDER         FAIR      12   8  84 CALM      29.72F
RIVERTON       FAIR       6   2  83 NW7       29.74F WCI  -6
CASPER         FAIR      32  17  54 SW23G35   29.69S WCI  19
DOUGLAS        FAIR      28  16  60 N8        29.64F WCI  20

$$
WYZ021-027>030-104>119-190900-
SOUTHERN WYOMING

CITY           SKY/WX    TMP DP  RH WIND       PRES   REMARKS
EVANSTON       CLOUDY    25  10  53 SE6       29.79F WCI  18
ROCK SPRINGS   FAIR       9   5  84 E6        29.82F WCI  -1
RAWLINS        FAIR      27  17  66 SW10      29.83F WCI  17
LARAMIE        FAIR       9   7  92 SE3       29.75F
CHEYENNE       FAIR      36  15  42 W13       29.65F WCI  27
TORRINGTON     FAIR      27  17  66 W8        29.63S WCI  19

$$




USA.gov is the U.S. government's official web portal to all federal, state and local government web resources and services.